7 * 24
多渠道服务支持
STARLINK-37649(NORAD编号69202)是SpaceX星链(Starlink)卫星互联网星座的一员,属于低轨通信卫星。星链项目旨在构建覆盖全球的天基互联网系统,为偏远地区及网络欠发达区域提供高速宽带服务。该卫星随星链批次任务发射入轨,运行在近地轨道,通过星间链路和地面站配合实现全球网络接入。目前它处于正常在轨运行状态,纳入SpaceX的星座运维体系,支撑星座网络扩容与服务覆盖,相关轨道参数可用于航天仿真与轨道观测研究。
美国
(US)
| 数据来源 | 国际轨道数据 |
| 星历时间: | 2026-07-27T19:56:22+0800 12小时前 查看轨道信息 |
| 半长轴: | 6840.847km |
| 偏心率: | 0.0001211 |
| 轨道倾角: | 53.158° |
| 近地点辐角 | 98.385° |
| 升交点赤经 | 10.707° |
| 平近点角 | 261.729° |
| 近地点: | 461.881km |
| 远地点: | 463.539km |
| 周期: | 93.848分钟 |
| 每日圈数: | 15.343978 |